Home > Weather > Zagreb > Past weeks

Flag for Croatia Weather for the Past 2 Weeks in Zagreb, Croatia

Now
48 °F

Clear.


Feels Like: 46 °F
Forecast: 46 / 65 °F
Wind: 6 mph from West

Location: Zagreb / Pleso

Current Time: May 4, 2016 at 2:23:48 AM

Latest Report: May 4, 2016 at 2:00 AM


Visibility: 10 mi

Pressure: 29.92 "Hg

Humidity: 94%

Dew Point: 46 °F

Location of ZagrebLocation

Historic Weather in Zagreb — Graph

°F

Zagreb Temperature Yesterday

Maximum temperature yesterday: 64 °F (at 3:30 PM)
Minimum temperature yesterday: 50 °F (at 6:00 AM)
Average temperature yesterday: 56 °F

High & Low Weather Summary for the Past Weeks

 TemperatureHumidityPressure
High72 °F (Apr 22, 3:00 PM)100% (Apr 20, 3:00 AM)30.36 "Hg (Apr 20, 3:00 AM)
Low28 °F (Apr 26, 5:00 AM)29% (Apr 26, 1:00 PM)29.53 "Hg (Apr 24, 2:00 AM)
Average50 °F73%29.96 "Hg
* Reported Apr 19 1:00 AM — May 4 1:30 AM, Zagreb, Weather by CustomWeather, © 2016

Note: Actual official high and low records may vary slightly from our data, if they occured in-between our weather recording intervals... More about our weather records

Advertising

Zagreb Weather History for the Previous 24 Hours

Scroll right to see more
 ConditionsComfort  
Time TempWeatherWind HumidityBarometerVisibility
1:30 AM
Wed, May 4
48 °FPassing clouds.3 mph94%29.92 "HgN/A
1:00 AM48 °FClear.3 mph94%29.92 "Hg10 mi
12:00 AM50 °FClear.2 mph88%29.92 "Hg10 mi
11:30 PM
Tue, May 3
50 °FClear.2 mph82%29.92 "Hg10 mi
11:00 PM54 °FClear.8 mph77%29.92 "Hg10 mi
10:30 PM54 °FLight rain. Clear.10 mph82%29.92 "HgN/A
10:00 PM52 °FClear.1 mph94%29.92 "Hg10 mi
9:30 PM52 °FClear.5 mph88%29.89 "Hg10 mi
9:00 PM54 °FPassing clouds.3 mph82%29.89 "HgN/A
8:30 PM55 °FPassing clouds.6 mph77%29.89 "HgN/A
8:00 PM55 °FSunny.3 mph82%29.89 "Hg10 mi
7:30 PM57 °FPassing clouds.6 mph77%29.86 "HgN/A
7:00 PM57 °FPassing clouds.3 mph77%29.86 "HgN/A
6:30 PM55 °FPassing clouds.6 mph82%29.86 "HgN/A
6:00 PM55 °FPassing clouds.5 mph77%29.86 "HgN/A
5:30 PM55 °FLight rain. Passing clouds.3 mph77%29.86 "HgN/A
5:00 PM55 °FSprinkles. Broken clouds.14 mph77%29.89 "HgN/A
4:30 PM61 °FScattered clouds.7 mph72%29.89 "HgN/A
4:00 PM63 °FScattered clouds.6 mph68%29.89 "HgN/A
3:30 PM64 °FPassing clouds.8 mph64%29.89 "HgN/A
3:00 PM61 °FPassing clouds.7 mph72%29.89 "HgN/A
2:30 PM63 °FSprinkles. Passing clouds.9 mph68%29.89 "HgN/A
1:30 PM61 °FPassing clouds.3 mph68%29.92 "HgN/A
1:00 PM61 °FPassing clouds.2 mph68%29.92 "HgN/A
12:30 PM59 °FPassing clouds.9 mph68%29.92 "HgN/A
12:00 PM61 °FPassing clouds.17 mph59%29.92 "HgN/A
11:30 AM59 °FPassing clouds.13 mph68%29.92 "HgN/A
11:00 AM59 °FPassing clouds.13 mph68%29.92 "HgN/A
10:30 AM59 °FPassing clouds.15 mph68%29.92 "HgN/A
10:00 AM59 °FPassing clouds.15 mph72%29.92 "HgN/A
9:30 AM59 °FPassing clouds.12 mph68%29.92 "HgN/A
9:00 AM57 °FPassing clouds.9 mph72%29.92 "HgN/A
8:30 AM55 °FPassing clouds.9 mph77%29.92 "HgN/A
8:00 AM52 °FPassing clouds.1 mph94%29.92 "HgN/A
7:30 AM50 °FPassing clouds.2 mph94%29.92 "HgN/A
7:00 AM50 °FPassing clouds.1 mph88%29.92 "HgN/A
6:30 AM52 °FPassing clouds.7 mph88%29.89 "HgN/A
6:00 AM50 °FClear.1 mph88%29.92 "Hg10 mi
5:00 AM52 °FPassing clouds.5 mph88%29.92 "HgN/A
4:30 AM52 °FClear.1 mph88%29.92 "Hg10 mi
3:30 AM52 °FClear.2 mph88%29.92 "Hg10 mi
3:00 AM54 °FPassing clouds.6 mph82%29.92 "HgN/A
2:30 AM54 °FPassing clouds.8 mph82%29.92 "HgN/A
2:00 AM54 °FLight rain. Passing clouds.8 mph88%29.92 "HgN/A
Weather by CustomWeather, © 2016

See weather overviewHow to use our weather pages